Location: Belfast
(54.5830°N, 5.9330°W)
Time: 12:59:06
(UTC+00:00)

ISS - Pass Details

Date: 09 December 2017
Orbit: 402 x 406 km, 51.6° (Epoch: 16 December)

Event Time Altitude Azimuth Distance (km) Brightness Sun altitude
Rises 17:14:36 0° 261° (W) 2,331 1.7 -10.1°
Reaches altitude 10° 17:16:43 10° 256° (WSW) 1,470 0.5 -10.4°
Maximum altitude 17:19:56 51° 180° (S) 522 -3.1 -10.8°
Enters shadow 17:22:50 12° 104° (ESE) 1,347 -1.7 -11.2°
